This is the latest recevied weather packets stored in our database for station/object OK1OBR-13. If no packets are shown the sender has not sent any weather packets the latest 1 day(s).
| Time | Temp. | Humidity | Pressure | Rain* | Wind** | Luminosity | Snow |
|---|---|---|---|---|---|---|---|
| 1778019662 | 13.89° C | 63% | 928.2 hPa | 0 mm | 0.89 m/s, 222° | - | - |
| 1778019601 | 13.89° C | 63% | 928.3 hPa | 0 mm | 1.34 m/s, 198° | - | - |
| 1778019540 | 13.89° C | 63% | 928.2 hPa | 0 mm | 1.34 m/s, 212° | - | - |
| 1778019481 | 13.89° C | 62% | 928.1 hPa | 0 mm | 0.89 m/s, 209° | - | - |
| 1778019421 | 13.89° C | 62% | 928.2 hPa | 0 mm | 1.79 m/s, 173° | - | - |
| 1778019361 | 13.89° C | 62% | 928.1 hPa | 0 mm | 1.34 m/s, 171° | - | - |
| 1778019301 | 13.89° C | 62% | 927.9 hPa | 0 mm | 1.34 m/s, 168° | - | - |
| 1778019241 | 13.89° C | 62% | 927.8 hPa | 0 mm | 1.79 m/s, 173° | - | - |
| 1778019181 | 13.89° C | 62% | 927.9 hPa | 0 mm | 1.34 m/s, 162° | - | - |
| 1778019121 | 13.89° C | 63% | 928.1 hPa | 0 mm | 1.34 m/s, 204° | - | - |
| 1778019062 | 13.89° C | 62% | 928 hPa | 0 mm | 1.34 m/s, 191° | - | - |
| 1778019001 | 13.89° C | 63% | 927.8 hPa | 0 mm | 1.34 m/s, 177° | - | - |
| 1778018941 | 13.89° C | 63% | 927.9 hPa | 0 mm | 1.34 m/s, 171° | - | - |
| 1778018881 | 13.89° C | 63% | 927.9 hPa | 0 mm | 1.34 m/s, 172° | - | - |
| 1778018821 | 13.89° C | 63% | 927.6 hPa | 0 mm | 1.34 m/s, 179° | - | - |
| 1778018761 | 13.89° C | 63% | 927.7 hPa | 0 mm | 1.34 m/s, 151° | - | - |
| 1778018701 | 14.44° C | 62% | 927.7 hPa | 0 mm | 0.89 m/s, 154° | - | - |
| 1778018641 | 14.44° C | 63% | 927.7 hPa | 0 mm | 0.89 m/s, 171° | - | - |
| 1778018582 | 14.44° C | 62% | 927.6 hPa | 0 mm | 0.89 m/s, 177° | - | - |
| 1778018521 | 14.44° C | 62% | 927.6 hPa | 0 mm | 1.79 m/s, 166° | - | - |
| 1778018461 | 14.44° C | 62% | 927.6 hPa | 0 mm | 1.79 m/s, 163° | - | - |
| 1778018407 | 14.44° C | 62% | 927.2 hPa | 0 mm | 2.68 m/s, 164° | - | - |
| 1778018341 | 14.44° C | 62% | 927.3 hPa | 0 mm | 1.79 m/s, 131° | - | - |
| 1778018281 | 14.44° C | 62% | 927.5 hPa | 0 mm | 1.79 m/s, 167° | - | - |
| 1778018221 | 14.44° C | 62% | 927.2 hPa | 0 mm | 1.79 m/s, 170° | - | - |
* Rain since midnight (hover to see other rain measurements)
** Current wind speed in m/s (hover to see current wind gust speed)